QPF
0.05 0.06 0.06 0.06 0.06 0.05 0.04 0.06 0.06 0.05 0.06 0.06 0.05 0.04 0.02 0.03 0.03 0.02 0.03 0.05 0.04 0.04 0.06 0.06 0.05 0.05 0.05 0.06 0.07 0.07 0.09 0.12 0.12 0.11 0.13 0.14 0.15 0.16 0.16 0.14 0.13 0.14 0.16
0.05 0.07 0.06 0.07 0.05 0.04 0.04 0.06 0.07 0.07 0.07 0.07 0.07 0.05 0.04 0.04 0.04 0.02 0.03 0.03 0.02 0.03 0.05 0.05 0.04 0.06 0.06 0.05 0.05 0.07 0.08 0.09 0.12 0.15 0.17 0.18 0.19 0.19 0.16 0.13 0.13 0.13 0.14
0.03 0.05 0.05 0.05 0.05 0.04 0.05 0.06 0.06 0.05 0.04 0.05 0.08 0.09 0.09 0.09 0.06 0.04 0.04 0.02 0.02 0.03 0.04 0.03 0.03 0.05 0.06 0.04 0.04 0.05 0.06 0.08 0.10 0.11 0.12 0.13 0.13 0.13 0.12 0.11 0.11 0.12 0.12
0.03 0.03 0.04 0.04 0.05 0.05 0.04 0.05 0.04 0.03 0.02 0.03 0.05 0.06 0.07 0.08 0.07 0.06 0.05 0.04 0.04 0.06 0.06 0.03 0.02 0.02 0.02 0.03 0.03 0.04 0.07 0.09 0.09 0.09 0.08 0.08 0.07 0.08 0.08 0.08 0.08 0.08 0.08
0.03 0.05 0.09 0.09 0.07 0.05 0.04 0.03 0.02 0.02 0.02 0.02 0.01 0.02 0.02 0.02 0.03 0.04 0.04 0.05 0.06 0.07 0.04 0.01 0.01 0.01 0.01 0.02 0.02 0.03 0.04 0.05 0.05 0.06 0.06 0.08 0.09 0.08 0.08 0.08 0.07 0.07 0.08
0.05 0.07 0.05 0.07 0.07 0.05 0.03 0.02 0.01 0.01 0.01 0.01 0.01 0.01 0.01 0.01 0.02 0.04 0.04 0.04 0.05 0.04 0.03 0.02 0.02 0.02 0.02 0.03 0.04 0.04 0.04 0.04 0.05 0.07 0.10 0.11 0.10 0.08 0.07 0.08 0.07 0.07 0.08
0.07 0.04 0.04 0.04 0.04 0.03 0.02 0.02 0.02 0.02 0.01 0.01 0.00 0.00 0.01 0.02 0.02 0.03 0.03 0.03 0.03 0.03 0.03 0.03 0.02 0.02 0.02 0.01 0.02 0.02 0.02 0.03 0.03 0.03 0.04 0.05 0.05 0.05 0.06 0.07 0.07 0.07 0.08
0.03 0.03 0.05 0.04 0.03 0.03 0.02 0.02 0.02 0.01 0.01 0.00 0.00 0.00 0.00 0.01 0.02 0.02 0.03 0.03 0.03 0.03 0.03 0.03 0.03 0.02 0.01 0.01 0.01 0.01 0.01 0.01 0.02 0.02 0.02 0.03 0.04 0.04 0.05 0.06 0.08 0.08 0.09
0.03 0.03 0.05 0.04 0.03 0.02 0.02 0.02 0.01 0.01 0.01 0.00 0.00 0.00 0.00 0.01 0.01 0.02 0.03 0.04 0.05 0.04 0.03 0.02 0.02 0.02 0.01 0.01 0.01 0.01 0.01 0.01 0.02 0.02 0.02 0.02 0.03 0.04 0.05 0.06 0.07 0.09 0.11
0.04 0.04 0.04 0.03 0.03 0.03 0.02 0.02 0.01 0.01 0.01 0.01 0.01 0.00 0.01 0.01 0.01 0.01 0.01 0.01 0.01 0.01 0.01 0.01 0.01 0.01 0.01 0.01 0.01 0.01 0.01 0.01 0.01 0.02 0.02 0.02 0.02 0.03 0.04 0.05 0.07 0.10 0.11
0.04 0.04 0.03 0.02 0.02 0.02 0.02 0.02 0.02 0.02 0.01 0.01 0.01 0.01 0.01 0.01 0.01 0.01 0.01 0.00 0.00 0.00 0.00 0.00 0.01 0.01 0.01 0.01 0.01 0.01 0.01 0.01 0.01 0.01 0.01 0.01 0.01 0.02 0.02 0.03 0.04 0.05 0.07
0.02 0.02 0.02 0.02 0.02 0.02 0.02 0.02 0.02 0.01 0.01 0.01 0.01 0.01 0.00 0.00 0.00 0.00 0.01 0.01 0.00 0.00 0.00 0.01 0.01 0.01 0.01 0.01 0.01 0.01 0.01 0.01 0.01 0.01 0.01 0.02 0.02 0.03 0.04 0.03 0.03 0.03 0.04
0.02 0.01 0.02 0.03 0.02 0.02 0.01 0.02 0.02 0.02 0.02 0.01 0.01 0.00 0.00 0.00 0.00 0.00 0.00 0.00 0.00 0.00 0.01 0.01 0.01 0.01 0.01 0.01 0.01 0.01 0.01 0.01 0.01 0.01 0.01 0.02 0.02 0.02 0.02 0.02 0.01 0.01 0.01
0.03 0.03 0.03 0.02 0.02 0.02 0.02 0.02 0.03 0.02 0.02 0.02 0.01 0.00 0.00 0.00 0.00 0.00 0.00 0.00 0.00 0.00 0.00 0.00 0.00 0.00 0.00 0.00 0.00 0.00 0.00 0.00 0.00 0.00 0.00 0.00 0.00 0.00 0.00 0.00 0.00 0.01 0.01
0.03 0.02 0.02 0.01 0.01 0.01 0.02 0.02 0.02 0.02 0.01 0.01 0.00 0.00 0.00 0.00 0.00 0.00 0.00 0.00 0.00 0.00 0.00 0.00 0.00 0.00 0.00 0.00 0.00 0.00 0.00 0.00 0.00 0.00 0.00 0.00 0.00 0.00 0.00 0.00 0.00 0.01 0.01
0.02 0.02 0.02 0.01 0.01 0.01 0.01 0.01 0.01 0.01 0.01 0.01 0.00 0.00 0.00 0.00 0.00 0.00 0.00 0.00 0.00 0.00 0.00 0.00 0.00 0.00 0.00 0.00 0.00 0.00 0.00 0.00 0.00 0.00 0.00 0.00 0.00 0.00 0.00 0.01 0.01 0.01 0.01
0.02 0.01 0.02 0.02 0.02 0.02 0.01 0.01 0.01 0.01 0.01 0.01 0.01 0.00 0.00 0.00 0.00 0.00 0.00 0.00 0.00 0.00 0.00 0.00 0.00 0.00 0.00 0.00 0.00 0.00 0.00 0.00 0.00 0.00 0.00 0.00 0.00 0.00 0.00 0.01 0.00 0.00 0.00
0.01 0.02 0.02 0.01 0.01 0.01 0.01 0.01 0.01 0.01 0.01 0.01 0.01 0.00 0.00 0.00 0.00 0.00 0.00 0.00 0.00 0.00 0.00 0.00 0.00 0.00 0.01 0.01 0.01 0.00 0.00 0.01 0.01 0.00 0.00 0.00 0.00 0.01 0.01 0.01 0.01 0.01 0.00
0.01 0.01 0.01 0.01 0.01 0.01 0.01 0.01 0.01 0.01 0.01 0.01 0.01 0.01 0.00 0.01 0.01 0.01 0.00 0.00 0.00 0.00 0.01 0.01 0.01 0.01 0.01 0.01 0.01 0.01 0.01 0.00 0.01 0.01 0.01 0.01 0.01 0.01 0.01 0.01 0.01 0.01 0.00
0.01 0.02 0.01 0.01 0.01 0.01 0.01 0.02 0.02 0.02 0.02 0.01 0.01 0.01 0.01 0.01 0.01 0.01 0.00 0.00 0.00 0.00 0.00 0.01 0.01 0.00 0.00 0.00 0.01 0.01 0.01 0.01 0.01 0.01 0.01 0.01 0.01 0.01 0.01 0.01 0.01 0.00 0.00
0.01 0.02 0.02 0.02 0.01 0.01 0.01 0.01 0.01 0.01 0.01 0.01 0.01 0.01 0.01 0.01 0.01 0.01 0.01 0.01 0.00 0.00 0.01 0.01 0.00 0.00 0.00 0.00 0.00 0.01 0.01 0.01 0.01 0.01 0.01 0.01 0.01 0.01 0.00 0.00 0.00 0.00 0.00
0.01 0.02 0.01 0.01 0.01 0.01 0.01 0.01 0.01 0.01 0.01 0.01 0.01 0.01 0.01 0.01 0.01 0.01 0.01 0.01 0.01 0.01 0.01 0.00 0.00 0.00 0.00 0.00 0.00 0.00 0.00 0.00 0.01 0.01 0.01 0.01 0.01 0.00 0.00 0.00 0.00 0.00 0.00
0.01 0.01 0.01 0.01 0.01 0.02 0.01 0.01 0.00 0.00 0.00 0.01 0.01 0.01 0.01 0.01 0.01 0.01 0.01 0.01 0.01 0.01 0.01 0.00 0.00 0.00 0.00 0.00 0.00 0.00 0.00 0.00 0.00 0.00 0.00 0.00 0.00 0.00 0.00 0.00 0.00 0.00 0.00
0.01 0.01 0.01 0.01 0.01 0.01 0.00 0.00 0.00 0.00 0.00 0.00 0.01 0.01 0.01 0.01 0.01 0.01 0.01 0.01 0.01 0.01 0.01 0.00 0.00 0.00 0.00 0.00 0.00 0.00 0.00 0.00 0.00 0.00 0.00 0.00 0.00 0.00 0.00 0.00 0.00 0.00 0.00
0.02 0.01 0.01 0.01 0.00 0.00 0.00 0.00 0.00 0.00 0.00 0.01 0.01 0.01 0.01 0.01 0.01 0.01 0.01 0.01 0.01 0.01 0.01 0.00 0.00 0.00 0.00 0.00 0.00 0.00 0.01 0.01 0.00 0.00 0.00 0.00 0.00 0.00 0.00 0.00 0.00 0.00 0.00
0.02 0.02 0.02 0.01 0.00 0.00 0.00 0.00 0.00 0.00 0.00 0.01 0.01 0.01 0.01 0.01 0.01 0.01 0.01 0.01 0.01 0.01 0.01 0.00 0.00 0.00 0.00 0.00 0.00 0.00 0.00 0.00 0.00 0.00 0.00 0.00 0.00 0.00 0.00 0.00 0.00 0.00 0.00
MSLP
1015.17 1015.45 1015.74 1015.97 1016.11 1016.16 1016.10 1015.97 1015.80 1015.63 1015.47 1015.34 1015.25 1015.17 1015.09 1015.01 1014.92 1014.84 1014.78 1014.77 1014.83 1014.97 1015.20 1015.50 1015.84 1016.21 1016.57 1016.91 1017.20 1017.47 1017.71 1017.94 1018.19 1018.45 1018.74 1019.04 1019.34 1019.61 1019.84 1020.02 1020.14 1020.20 1020.22
1015.38 1015.69 1016.00 1016.26 1016.44 1016.51 1016.49 1016.38 1016.23 1016.05 1015.87 1015.70 1015.55 1015.41 1015.27 1015.13 1014.99 1014.86 1014.75 1014.71 1014.73 1014.83 1015.01 1015.26 1015.56 1015.87 1016.19 1016.49 1016.76 1017.02 1017.28 1017.55 1017.85 1018.20 1018.58 1019.00 1019.43 1019.84 1020.21 1020.53 1020.78 1020.97 1021.10
1015.61 1015.95 1016.30 1016.60 1016.82 1016.93 1016.94 1016.87 1016.74 1016.57 1016.39 1016.21 1016.03 1015.85 1015.67 1015.49 1015.31 1015.15 1015.02 1014.94 1014.93 1015.00 1015.14 1015.34 1015.58 1015.84 1016.10 1016.34 1016.57 1016.80 1017.04 1017.32 1017.65 1018.05 1018.51 1019.02 1019.56 1020.10 1020.61 1021.06 1021.45 1021.77 1022.01
1015.82 1016.21 1016.60 1016.94 1017.20 1017.35 1017.41 1017.38 1017.28 1017.15 1016.99 1016.82 1016.64 1016.46 1016.27 1016.07 1015.87 1015.70 1015.55 1015.46 1015.44 1015.48 1015.59 1015.75 1015.93 1016.13 1016.32 1016.50 1016.67 1016.85 1017.05 1017.31 1017.64 1018.06 1018.56 1019.13 1019.75 1020.38 1020.99 1021.56 1022.07 1022.50 1022.85
1015.98 1016.43 1016.86 1017.23 1017.52 1017.72 1017.82 1017.84 1017.79 1017.71 1017.60 1017.47 1017.32 1017.16 1016.99 1016.80 1016.62 1016.44 1016.31 1016.21 1016.18 1016.21 1016.30 1016.42 1016.56 1016.70 1016.83 1016.95 1017.05 1017.16 1017.32 1017.53 1017.83 1018.23 1018.73 1019.33 1019.98 1020.66 1021.34 1021.99 1022.58 1023.10 1023.54
1016.08 1016.57 1017.03 1017.43 1017.74 1017.97 1018.11 1018.19 1018.21 1018.19 1018.15 1018.08 1018.00 1017.88 1017.75 1017.60 1017.44 1017.29 1017.17 1017.09 1017.06 1017.09 1017.16 1017.26 1017.37 1017.47 1017.55 1017.61 1017.65 1017.71 1017.80 1017.96 1018.21 1018.57 1019.04 1019.61 1020.26 1020.95 1021.65 1022.33 1022.97 1023.53 1024.03
1016.09 1016.61 1017.09 1017.50 1017.83 1018.09 1018.27 1018.39 1018.48 1018.54 1018.58 1018.59 1018.58 1018.54 1018.46 1018.36 1018.24 1018.13 1018.03 1017.97 1017.96 1017.99 1018.06 1018.15 1018.25 1018.32 1018.37 1018.39 1018.40 1018.40 1018.44 1018.55 1018.75 1019.05 1019.47 1019.99 1020.60 1021.26 1021.94 1022.60 1023.23 1023.81 1024.32
1016.02 1016.55 1017.03 1017.44 1017.78 1018.05 1018.26 1018.44 1018.60 1018.73 1018.86 1018.96 1019.03 1019.06 1019.05 1019.00 1018.93 1018.85 1018.78 1018.75 1018.75 1018.80 1018.88 1018.98 1019.07 1019.15 1019.19 1019.20 1019.19 1019.17 1019.18 1019.25 1019.40 1019.65 1020.01 1020.47 1021.01 1021.60 1022.22 1022.84 1023.43 1023.98 1024.47
1015.88 1016.41 1016.88 1017.28 1017.61 1017.89 1018.13 1018.35 1018.57 1018.78 1018.98 1019.17 1019.31 1019.41 1019.46 1019.47 1019.44 1019.39 1019.35 1019.34 1019.37 1019.43 1019.53 1019.65 1019.77 1019.86 1019.93 1019.95 1019.95 1019.94 1019.95 1020.01 1020.13 1020.34 1020.64 1021.03 1021.50 1022.02 1022.56 1023.10 1023.63 1024.12 1024.57
1015.69 1016.21 1016.66 1017.04 1017.37 1017.65 1017.92 1018.18 1018.45 1018.73 1019.00 1019.24 1019.45 1019.61 1019.71 1019.75 1019.76 1019.74 1019.73 1019.74 1019.79 1019.88 1020.01 1020.16 1020.31 1020.44 1020.55 1020.61 1020.65 1020.68 1020.71 1020.77 1020.89 1021.07 1021.34 1021.67 1022.07 1022.51 1022.96 1023.43 1023.87 1024.29 1024.68
1015.51 1016.00 1016.43 1016.79 1017.11 1017.40 1017.69 1017.99 1018.31 1018.63 1018.95 1019.24 1019.49 1019.69 1019.82 1019.89 1019.92 1019.93 1019.94 1019.97 1020.05 1020.17 1020.33 1020.51 1020.71 1020.89 1021.05 1021.17 1021.27 1021.34 1021.41 1021.50 1021.64 1021.82 1022.06 1022.35 1022.69 1023.06 1023.44 1023.82 1024.18 1024.53 1024.85
1015.35 1015.82 1016.22 1016.58 1016.90 1017.21 1017.52 1017.85 1018.20 1018.55 1018.90 1019.22 1019.49 1019.71 1019.85 1019.94 1019.98 1020.01 1020.04 1020.10 1020.20 1020.35 1020.55 1020.78 1021.02 1021.25 1021.46 1021.64 1021.79 1021.92 1022.04 1022.17 1022.33 1022.52 1022.75 1023.02 1023.31 1023.62 1023.94 1024.25 1024.54 1024.81 1025.07
1015.25 1015.70 1016.09 1016.45 1016.78 1017.11 1017.45 1017.80 1018.17 1018.55 1018.90 1019.23 1019.51 1019.72 1019.87 1019.96 1020.02 1020.06 1020.11 1020.20 1020.33 1020.51 1020.74 1021.00 1021.28 1021.55 1021.81 1022.03 1022.23 1022.41 1022.57 1022.74 1022.92 1023.12 1023.35 1023.60 1023.87 1024.14 1024.40 1024.65 1024.88 1025.10 1025.30
1015.23 1015.65 1016.05 1016.42 1016.78 1017.14 1017.50 1017.87 1018.26 1018.63 1018.99 1019.30 1019.57 1019.77 1019.91 1020.01 1020.07 1020.13 1020.21 1020.32 1020.48 1020.68 1020.94 1021.22 1021.52 1021.82 1022.10 1022.35 1022.58 1022.79 1022.98 1023.17 1023.37 1023.58 1023.81 1024.05 1024.29 1024.53 1024.76 1024.97 1025.15 1025.32 1025.48
1015.27 1015.69 1016.10 1016.49 1016.88 1017.27 1017.66 1018.05 1018.44 1018.81 1019.15 1019.44 1019.68 1019.86 1020.00 1020.09 1020.17 1020.24 1020.34 1020.48 1020.66 1020.89 1021.16 1021.46 1021.76 1022.06 1022.34 1022.59 1022.82 1023.03 1023.23 1023.42 1023.63 1023.84 1024.06 1024.30 1024.53 1024.75 1024.95 1025.13 1025.29 1025.43 1025.55
1015.36 1015.78 1016.21 1016.64 1017.06 1017.48 1017.89 1018.29 1018.68 1019.03 1019.34 1019.61 1019.82 1019.99 1020.11 1020.20 1020.29 1020.38 1020.51 1020.66 1020.87 1021.11 1021.38 1021.67 1021.96 1022.24 1022.50 1022.73 1022.93 1023.13 1023.31 1023.49 1023.69 1023.89 1024.11 1024.33 1024.55 1024.76 1024.95 1025.12 1025.26 1025.39 1025.50
1015.46 1015.89 1016.35 1016.80 1017.26 1017.70 1018.13 1018.54 1018.91 1019.25 1019.53 1019.77 1019.96 1020.10 1020.22 1020.31 1020.41 1020.52 1020.66 1020.84 1021.05 1021.29 1021.55 1021.82 1022.08 1022.33 1022.55 1022.74 1022.91 1023.07 1023.23 1023.39 1023.57 1023.76 1023.97 1024.18 1024.39 1024.60 1024.78 1024.95 1025.09 1025.22 1025.33
1015.53 1015.99 1016.46 1016.94 1017.42 1017.88 1018.32 1018.72 1019.09 1019.40 1019.66 1019.87 1020.04 1020.17 1020.28 1020.38 1020.48 1020.61 1020.76 1020.95 1021.16 1021.39 1021.64 1021.87 1022.10 1022.30 1022.47 1022.63 1022.76 1022.89 1023.01 1023.16 1023.32 1023.50 1023.69 1023.90 1024.11 1024.32 1024.50 1024.68 1024.83 1024.96 1025.09
1015.57 1016.03 1016.52 1017.02 1017.51 1017.98 1018.42 1018.82 1019.16 1019.46 1019.70 1019.89 1020.04 1020.16 1020.27 1020.37 1020.49 1020.62 1020.78 1020.97 1021.17 1021.38 1021.60 1021.80 1021.99 1022.15 1022.28 1022.40 1022.50 1022.60 1022.71 1022.84 1022.99 1023.16 1023.36 1023.57 1023.78 1023.98 1024.18 1024.36 1024.53 1024.68 1024.83
1015.57 1016.03 1016.52 1017.02 1017.51 1017.98 1018.41 1018.80 1019.13 1019.41 1019.64 1019.82 1019.96 1020.08 1020.19 1020.30 1020.41 1020.55 1020.71 1020.88 1021.07 1021.26 1021.45 1021.62 1021.77 1021.90 1022.00 1022.10 1022.18 1022.28 1022.38 1022.51 1022.66 1022.83 1023.03 1023.24 1023.45 1023.67 1023.87 1024.06 1024.24 1024.42 1024.58
1015.55 1016.00 1016.48 1016.97 1017.45 1017.90 1018.32 1018.69 1019.01 1019.27 1019.49 1019.67 1019.81 1019.94 1020.05 1020.16 1020.28 1020.41 1020.56 1020.72 1020.88 1021.05 1021.20 1021.35 1021.47 1021.59 1021.68 1021.77 1021.86 1021.96 1022.07 1022.21 1022.37 1022.55 1022.75 1022.97 1023.18 1023.40 1023.60 1023.80 1023.99 1024.18 1024.36
1015.54 1015.97 1016.43 1016.89 1017.34 1017.77 1018.17 1018.52 1018.83 1019.09 1019.31 1019.49 1019.64 1019.76 1019.88 1019.99 1020.11 1020.24 1020.37 1020.51 1020.65 1020.79 1020.92 1021.04 1021.16 1021.26 1021.36 1021.47 1021.57 1021.69 1021.83 1021.99 1022.17 1022.36 1022.56 1022.77 1022.98 1023.19 1023.39 1023.58 1023.77 1023.96 1024.15
1015.60 1015.99 1016.41 1016.83 1017.24 1017.64 1018.01 1018.35 1018.65 1018.90 1019.12 1019.31 1019.46 1019.60 1019.72 1019.83 1019.94 1020.06 1020.17 1020.29 1020.41 1020.52 1020.64 1020.75 1020.86 1020.98 1021.10 1021.22 1021.36 1021.51 1021.68 1021.86 1022.05 1022.25 1022.45 1022.65 1022.84 1023.02 1023.20 1023.37 1023.55 1023.72 1023.90
1015.74 1016.08 1016.45 1016.82 1017.19 1017.55 1017.89 1018.20 1018.49 1018.74 1018.96 1019.15 1019.32 1019.46 1019.58 1019.69 1019.79 1019.89 1019.99 1020.08 1020.18 1020.28 1020.39 1020.50 1020.62 1020.75 1020.90 1021.05 1021.22 1021.41 1021.60 1021.80 1022.00 1022.20 1022.39 1022.57 1022.73 1022.88 1023.02 1023.16 1023.30 1023.44 1023.60
1015.96 1016.25 1016.55 1016.87 1017.19 1017.51 1017.81 1018.10 1018.37 1018.61 1018.83 1019.02 1019.19 1019.33 1019.45 1019.56 1019.65 1019.74 1019.82 1019.90 1019.98 1020.07 1020.18 1020.29 1020.43 1020.58 1020.75 1020.94 1021.15 1021.36 1021.58 1021.79 1022.00 1022.18 1022.35 1022.50 1022.62 1022.73 1022.82 1022.91 1023.01 1023.11 1023.24
1016.22 1016.46 1016.71 1016.97 1017.23 1017.50 1017.77 1018.02 1018.27 1018.50 1018.70 1018.89 1019.05 1019.19 1019.31 1019.41 1019.50 1019.57 1019.64 1019.71 1019.78 1019.87 1019.98 1020.11 1020.26 1020.44 1020.64 1020.86 1021.09 1021.33 1021.57 1021.79 1021.99 1022.16 1022.30 1022.41 1022.49 1022.56 1022.60 1022.64 1022.69 1022.75 1022.82
Thickness
5754 5752 5749 5747 5744 5742 5739 5737 5735 5734 5733 5732 5730 5729 5728 5727 5725 5724 5722 5721 5719 5717 5716 5715 5714 5713 5712 5711 5709 5707 5705 5702 5698 5697 5696 5694 5692 5691 5689 5687 5685 5684 5682
5753 5750 5747 5744 5741 5738 5736 5734 5732 5730 5729 5727 5726 5724 5723 5722 5721 5719 5718 5716 5714 5712 5711 5709 5708 5707 5706 5705 5704 5702 5700 5698 5694 5690 5688 5686 5684 5682 5681 5679 5677 5675 5673
5752 5747 5743 5740 5737 5734 5732 5730 5729 5727 5724 5723 5721 5719 5717 5716 5715 5714 5712 5711 5709 5706 5705 5703 5702 5701 5700 5699 5698 5696 5694 5693 5689 5685 5681 5678 5675 5674 5672 5670 5668 5665 5664
5750 5745 5740 5736 5733 5730 5728 5726 5724 5722 5719 5717 5716 5714 5712 5711 5710 5708 5706 5705 5702 5700 5698 5697 5696 5695 5694 5693 5691 5689 5687 5685 5682 5678 5674 5670 5668 5666 5663 5661 5658 5655 5653
5747 5741 5737 5733 5730 5726 5723 5721 5719 5716 5714 5712 5710 5708 5707 5706 5704 5702 5700 5698 5695 5693 5691 5689 5689 5688 5687 5686 5684 5681 5679 5677 5674 5670 5666 5663 5660 5657 5654 5651 5648 5645 5642
5743 5738 5733 5729 5725 5721 5718 5715 5713 5710 5708 5706 5704 5702 5701 5699 5697 5696 5694 5691 5688 5685 5683 5681 5680 5678 5677 5676 5675 5673 5671 5668 5665 5662 5657 5654 5651 5648 5646 5643 5639 5637 5633
5738 5734 5730 5726 5721 5717 5714 5710 5707 5704 5701 5699 5696 5695 5693 5691 5690 5689 5687 5683 5680 5677 5675 5673 5672 5670 5668 5667 5665 5663 5660 5658 5655 5652 5648 5644 5642 5640 5638 5635 5631 5627 5622
5733 5729 5726 5722 5717 5712 5708 5704 5700 5697 5695 5692 5690 5688 5686 5684 5683 5681 5679 5676 5672 5669 5667 5665 5663 5661 5659 5657 5656 5652 5649 5646 5644 5641 5638 5635 5633 5631 5629 5626 5621 5617 5612
5729 5725 5722 5718 5712 5708 5702 5698 5695 5691 5688 5685 5683 5681 5679 5677 5675 5673 5671 5668 5664 5661 5658 5656 5654 5652 5650 5649 5646 5643 5639 5635 5633 5631 5628 5625 5623 5621 5618 5616 5612 5608 5602
5725 5721 5717 5713 5708 5703 5697 5692 5689 5685 5682 5679 5676 5673 5671 5669 5667 5665 5664 5661 5656 5653 5649 5647 5645 5643 5640 5639 5636 5633 5629 5624 5623 5621 5618 5616 5613 5610 5607 5604 5601 5597 5592
5721 5716 5711 5707 5702 5697 5691 5687 5683 5679 5675 5672 5668 5665 5663 5661 5659 5657 5655 5652 5648 5645 5641 5637 5634 5633 5631 5629 5626 5623 5619 5616 5613 5610 5607 5604 5601 5598 5594 5591 5588 5585 5582
5716 5710 5704 5700 5696 5691 5686 5681 5677 5673 5669 5665 5661 5658 5655 5653 5651 5649 5646 5644 5641 5637 5633 5629 5626 5624 5622 5619 5616 5612 5610 5607 5604 5600 5596 5592 5588 5585 5581 5578 5575 5573 5569
5709 5702 5697 5692 5688 5684 5680 5675 5669 5665 5662 5658 5655 5651 5648 5645 5643 5641 5639 5636 5633 5629 5624 5621 5618 5616 5613 5609 5605 5602 5600 5597 5593 5589 5584 5579 5575 5572 5570 5567 5564 5562 5558
5701 5695 5690 5685 5680 5676 5673 5668 5664 5660 5656 5652 5649 5645 5641 5638 5635 5633 5630 5627 5624 5620 5616 5613 5609 5606 5603 5599 5595 5592 5589 5585 5582 5577 5573 5569 5566 5563 5560 5556 5553 5551 5548
5694 5689 5683 5678 5673 5669 5664 5660 5657 5653 5651 5647 5643 5639 5636 5632 5628 5626 5623 5620 5616 5613 5609 5605 5601 5597 5593 5589 5585 5582 5578 5575 5571 5567 5563 5560 5557 5553 5549 5545 5542 5540 5537
5687 5681 5676 5671 5666 5662 5657 5651 5647 5645 5643 5640 5637 5633 5629 5625 5622 5619 5616 5612 5609 5605 5601 5596 5591 5587 5583 5580 5576 5573 5569 5565 5561 5557 5554 5550 5547 5543 5539 5536 5532 5530 5526
5682 5676 5670 5665 5660 5656 5651 5647 5641 5636 5634 5631 5628 5625 5622 5618 5615 5611 5608 5604 5600 5597 5592 5587 5582 5578 5574 5571 5567 5564 5560 5555 5551 5548 5545 5541 5537 5534 5530 5527 5523 5520 5517
5675 5670 5665 5660 5655 5650 5645 5641 5637 5633 5628 5623 5619 5616 5613 5610 5607 5603 5599 5596 5591 5587 5583 5578 5574 5570 5566 5562 5559 5555 5551 5547 5543 5539 5536 5532 5529 5525 5522 5518 5515 5511 5508
5669 5663 5658 5653 5648 5643 5638 5634 5630 5625 5621 5616 5612 5608 5604 5601 5598 5594 5591 5587 5584 5579 5574 5570 5566 5562 5558 5554 5550 5547 5543 5539 5535 5531 5527 5524 5520 5517 5514 5510 5507 5502 5500
5663 5658 5652 5646 5641 5636 5631 5627 5623 5618 5614 5610 5606 5602 5597 5594 5590 5586 5582 5578 5575 5571 5567 5563 5559 5555 5550 5546 5542 5538 5535 5531 5527 5523 5520 5516 5512 5509 5506 5503 5500 5496 5493
5656 5651 5645 5640 5635 5630 5625 5620 5616 5611 5607 5603 5599 5595 5591 5588 5584 5579 5575 5571 5568 5564 5560 5556 5551 5547 5543 5539 5535 5531 5527 5523 5519 5516 5512 5509 5505 5502 5499 5496 5492 5489 5486
5649 5644 5638 5633 5628 5623 5618 5613 5609 5604 5600 5596 5591 5587 5582 5580 5576 5572 5568 5565 5561 5557 5553 5548 5544 5540 5536 5532 5528 5524 5520 5516 5512 5508 5505 5502 5498 5495 5492 5489 5486 5482 5479
5642 5636 5631 5626 5621 5615 5610 5606 5601 5597 5593 5589 5585 5580 5576 5572 5569 5565 5561 5558 5553 5550 5546 5541 5537 5533 5529 5525 5521 5517 5513 5510 5506 5502 5498 5495 5492 5488 5485 5482 5479 5476 5473
5635 5630 5624 5618 5613 5609 5604 5599 5595 5591 5586 5582 5578 5574 5570 5566 5563 5559 5555 5551 5547 5543 5539 5535 5531 5528 5523 5519 5515 5511 5507 5503 5499 5495 5492 5488 5485 5482 5479 5476 5473 5470 5468
5627 5622 5618 5612 5607 5602 5597 5593 5589 5585 5581 5577 5573 5569 5565 5561 5557 5553 5549 5545 5542 5538 5533 5529 5525 5521 5517 5513 5509 5505 5501 5497 5493 5489 5486 5482 5479 5476 5473 5470 5467 5465 5462
5619 5615 5610 5605 5600 5596 5591 5587 5583 5579 5575 5571 5568 5564 5560 5556 5552 5549 5545 5541 5537 5532 5528 5524 5520 5516 5512 5508 5504 5499 5495 5492 5488 5484 5480 5476 5473 5470 5467 5465 5462 5459 5457